User: anonymous
Location: Prairie State College
(41.5244°N, 87.6382°W)
Time: 03:05:42
(UTC-05:00)
Language:

MSX - Orbit

View from above orbital plane
View from above orbital plane
View from above satellite
View from above satellite

Ground track
Ground track

The orbit data is extracted from the following two-line orbital elements,

1 23851U 96024A   14101.82667251 0.00000100  00000-0  70537-4 0    04
2 23851  98.7876 150.8526 0010000 303.2168  56.7831 13.97972147    07
Epoch (UTC): 11 April 2014 19:50:24
Eccentricity: 0.0010000
inclination: 98.7876°
perigee height: 893 km
apogee height: 908 km
right ascension of ascending node: 150.8526°
argument of perigee: 303.2168°
revolutions per day: 13.97972147
mean anomaly at epoch: 56.7831°
orbit number at epoch: 0

The dashed part of the orbit path shows where the satellite is in the earth's shadow,  

DLR